Retour au catalogue

FENGYUN 1C DEB

ActifPO
NORAD 30018·DEBRIS·🇨🇳 China

Lancé May 10, 1999 depuis Taiyuan Satellite Launch Center

Loading…

Prochains Passages (prochaines 24 heures)

TLE

FraisSource: Space-Track

Époque: Sep 14, 2026, 06:08 UTC

1 30018U 99025MT  26257.25610339  .00002290  00000-0  31223-3 0  9995
2 30018  98.7556   6.8924 0112737  50.4583 340.4757 14.75497758 44970

Suivez FENGYUN 1C DEB en temps réel avec AllMySat

Download on the App Store